Year,Month,Day,Hour,Minute,Value (Times are PST for temperature in C)
2016,04,28,00,00,9.80
2016,04,28,00,01,9.80
2016,04,28,00,02,9.80
2016,04,28,00,03,9.80
2016,04,28,00,04,9.80
2016,04,28,00,05,9.80
2016,04,28,00,06,9.80
2016,04,28,00,07,9.80
2016,04,28,00,08,9.80
2016,04,28,00,09,9.70
2016,04,28,00,10,9.70
2016,04,28,00,11,9.70
2016,04,28,00,12,9.70
2016,04,28,00,13,9.70
2016,04,28,00,14,9.60
2016,04,28,00,15,9.60
2016,04,28,00,16,9.60
2016,04,28,00,17,9.60
2016,04,28,00,18,9.60
2016,04,28,00,19,9.60
2016,04,28,00,20,9.50
2016,04,28,00,21,9.50
2016,04,28,00,22,9.40
2016,04,28,00,23,9.40
2016,04,28,00,24,9.40
2016,04,28,00,25,9.50
2016,04,28,00,26,9.60
2016,04,28,00,27,9.60
2016,04,28,00,28,9.60
2016,04,28,00,29,9.60
2016,04,28,00,30,9.60
2016,04,28,00,31,9.50
2016,04,28,00,32,9.50
2016,04,28,00,33,9.40
2016,04,28,00,34,9.20
2016,04,28,00,35,9.10
2016,04,28,00,36,9.00
2016,04,28,00,37,9.00
2016,04,28,00,38,8.90
2016,04,28,00,39,8.80
2016,04,28,00,40,8.80
2016,04,28,00,41,8.80
2016,04,28,00,42,8.70
2016,04,28,00,43,8.70
2016,04,28,00,44,8.60
2016,04,28,00,45,8.60
2016,04,28,00,46,8.50
2016,04,28,00,47,8.40
2016,04,28,00,48,8.40
2016,04,28,00,49,8.40
2016,04,28,00,50,8.30
2016,04,28,00,51,8.30
2016,04,28,00,52,8.20
2016,04,28,00,53,8.20
2016,04,28,00,54,8.20
2016,04,28,00,55,8.20
2016,04,28,00,56,8.20
2016,04,28,00,57,8.20
2016,04,28,00,58,8.10
2016,04,28,00,59,8.10
2016,04,28,01,00,8.10
2016,04,28,01,01,8.10
2016,04,28,01,02,8.10
2016,04,28,01,03,8.10
2016,04,28,01,04,8.10
2016,04,28,01,05,8.10
2016,04,28,01,06,8.10
2016,04,28,01,07,8.10
2016,04,28,01,08,8.10
2016,04,28,01,09,8.10
2016,04,28,01,10,8.10
2016,04,28,01,11,8.10
2016,04,28,01,12,8.10
2016,04,28,01,13,8.00
2016,04,28,01,14,8.00
2016,04,28,01,15,8.00
2016,04,28,01,16,8.00
2016,04,28,01,17,7.90
2016,04,28,01,18,7.90
2016,04,28,01,19,7.90
2016,04,28,01,20,7.90
2016,04,28,01,21,7.90
2016,04,28,01,22,7.90
2016,04,28,01,23,7.90
2016,04,28,01,24,7.90
2016,04,28,01,25,7.90
2016,04,28,01,26,7.90
2016,04,28,01,27,7.90
2016,04,28,01,28,7.90
2016,04,28,01,29,7.90
2016,04,28,01,30,7.90
2016,04,28,01,31,7.90
2016,04,28,01,32,7.90
2016,04,28,01,33,7.90
2016,04,28,01,34,7.90
2016,04,28,01,35,7.90
2016,04,28,01,36,8.00
2016,04,28,01,37,8.00
2016,04,28,01,38,8.10
2016,04,28,01,39,8.10
2016,04,28,01,40,8.20
2016,04,28,01,41,8.20
2016,04,28,01,42,8.20
2016,04,28,01,43,8.30
2016,04,28,01,44,8.30
2016,04,28,01,45,8.30
2016,04,28,01,46,8.40
2016,04,28,01,47,8.40
2016,04,28,01,48,8.40
2016,04,28,01,49,8.50
2016,04,28,01,50,8.60
2016,04,28,01,51,8.60
2016,04,28,01,52,8.70
2016,04,28,01,53,8.70
2016,04,28,01,54,8.80
2016,04,28,01,55,8.80
2016,04,28,01,56,8.90
2016,04,28,01,57,8.90
2016,04,28,01,58,9.00
2016,04,28,01,59,9.10
2016,04,28,02,00,9.10
2016,04,28,02,01,9.10
2016,04,28,02,02,9.10
2016,04,28,02,03,9.10
2016,04,28,02,04,9.10
2016,04,28,02,05,9.10
2016,04,28,02,06,9.20
2016,04,28,02,07,9.20
2016,04,28,02,08,9.20
2016,04,28,02,09,9.20
2016,04,28,02,10,9.30
2016,04,28,02,11,9.30
2016,04,28,02,12,9.30
2016,04,28,02,13,9.40
2016,04,28,02,14,9.40
2016,04,28,02,15,9.40
2016,04,28,02,16,9.40
2016,04,28,02,17,9.40
2016,04,28,02,18,9.40
2016,04,28,02,19,9.40
2016,04,28,02,20,9.40
2016,04,28,02,21,9.30
2016,04,28,02,22,9.20
2016,04,28,02,23,9.10
2016,04,28,02,24,9.10
2016,04,28,02,25,9.00
2016,04,28,02,26,9.00
2016,04,28,02,27,8.90
2016,04,28,02,28,8.90
2016,04,28,02,29,8.90
2016,04,28,02,30,8.80
2016,04,28,02,31,8.80
2016,04,28,02,32,8.80
2016,04,28,02,33,8.70
2016,04,28,02,34,8.70
2016,04,28,02,35,8.70
2016,04,28,02,36,8.60
2016,04,28,02,37,8.50
2016,04,28,02,38,8.40
2016,04,28,02,39,8.40
2016,04,28,02,40,8.30
2016,04,28,02,41,8.30
2016,04,28,02,42,8.30
2016,04,28,02,43,8.30
2016,04,28,02,44,8.20
2016,04,28,02,45,8.20
2016,04,28,02,46,8.20
2016,04,28,02,47,8.20
2016,04,28,02,48,8.20
2016,04,28,02,49,8.20
2016,04,28,02,50,8.20
2016,04,28,02,51,8.20
2016,04,28,02,52,8.20
2016,04,28,02,53,8.20
2016,04,28,02,54,8.20
2016,04,28,02,55,8.20
2016,04,28,02,56,8.30
2016,04,28,02,57,8.30
2016,04,28,02,58,8.30
2016,04,28,02,59,8.40
2016,04,28,03,00,8.40
2016,04,28,03,01,8.40
2016,04,28,03,02,8.40
2016,04,28,03,03,8.40
2016,04,28,03,04,8.40
2016,04,28,03,05,8.40
2016,04,28,03,06,8.40
2016,04,28,03,07,8.40
2016,04,28,03,08,8.40
2016,04,28,03,09,8.40
2016,04,28,03,10,8.40
2016,04,28,03,11,8.40
2016,04,28,03,12,8.40
2016,04,28,03,13,8.40
2016,04,28,03,14,8.40
2016,04,28,03,15,8.40
2016,04,28,03,16,8.40
2016,04,28,03,17,8.30
2016,04,28,03,18,8.30
2016,04,28,03,19,8.30
2016,04,28,03,20,8.30
2016,04,28,03,21,8.30
2016,04,28,03,22,8.30
2016,04,28,03,23,8.20
2016,04,28,03,24,8.20
2016,04,28,03,25,8.20
2016,04,28,03,26,8.20
2016,04,28,03,27,8.20
2016,04,28,03,28,8.10
2016,04,28,03,29,8.10
2016,04,28,03,30,8.10
2016,04,28,03,31,8.10
2016,04,28,03,32,8.10
2016,04,28,03,33,8.10
2016,04,28,03,34,8.00
2016,04,28,03,35,8.00
2016,04,28,03,36,8.00
2016,04,28,03,37,8.00
2016,04,28,03,38,8.00
2016,04,28,03,39,8.00
2016,04,28,03,40,8.00
2016,04,28,03,41,8.00
2016,04,28,03,42,8.00
2016,04,28,03,43,8.10
2016,04,28,03,44,8.10
2016,04,28,03,45,8.10
2016,04,28,03,46,8.10
2016,04,28,03,47,8.10
2016,04,28,03,48,8.10
2016,04,28,03,49,8.10
2016,04,28,03,50,8.10
2016,04,28,03,51,8.10
2016,04,28,03,52,8.00
2016,04,28,03,53,8.00
2016,04,28,03,54,8.00
2016,04,28,03,55,7.90
2016,04,28,03,56,7.90
2016,04,28,03,57,7.90
2016,04,28,03,58,7.90
2016,04,28,03,59,7.90
2016,04,28,04,00,7.80
2016,04,28,04,01,7.80
2016,04,28,04,02,7.80
2016,04,28,04,03,7.80
2016,04,28,04,04,7.80
2016,04,28,04,05,7.70
2016,04,28,04,06,7.70
2016,04,28,04,07,7.70
2016,04,28,04,08,7.60
2016,04,28,04,09,7.60
2016,04,28,04,10,7.50
2016,04,28,04,11,7.40
2016,04,28,04,12,7.40
2016,04,28,04,13,7.40
2016,04,28,04,14,7.30
2016,04,28,04,15,7.30
2016,04,28,04,16,7.30
2016,04,28,04,17,7.20
2016,04,28,04,18,7.20
2016,04,28,04,19,7.20
2016,04,28,04,20,7.10
2016,04,28,04,21,7.10
2016,04,28,04,22,7.10
2016,04,28,04,23,7.10
2016,04,28,04,24,7.00
2016,04,28,04,25,7.00
2016,04,28,04,26,7.00
2016,04,28,04,27,7.00
2016,04,28,04,28,7.00
2016,04,28,04,29,7.00
2016,04,28,04,30,7.00
2016,04,28,04,31,6.90
2016,04,28,04,32,6.90
2016,04,28,04,33,6.90
2016,04,28,04,34,6.90
2016,04,28,04,35,6.90
2016,04,28,04,36,6.90
2016,04,28,04,37,6.90
2016,04,28,04,38,6.90
2016,04,28,04,39,6.90
2016,04,28,04,40,6.90
2016,04,28,04,41,6.90
2016,04,28,04,42,6.90
2016,04,28,04,43,6.90
2016,04,28,04,44,6.90
2016,04,28,04,45,7.00
2016,04,28,04,46,7.00
2016,04,28,04,47,7.00
2016,04,28,04,48,7.00
2016,04,28,04,49,7.00
2016,04,28,04,50,7.00
2016,04,28,04,51,7.10
2016,04,28,04,52,7.10
2016,04,28,04,53,7.10
2016,04,28,04,54,7.10
2016,04,28,04,55,7.10
2016,04,28,04,56,7.20
2016,04,28,04,57,7.20
2016,04,28,04,58,7.20
2016,04,28,04,59,7.20
2016,04,28,05,00,7.20
2016,04,28,05,01,7.20
2016,04,28,05,02,7.20
2016,04,28,05,03,7.20
2016,04,28,05,04,7.20
2016,04,28,05,05,7.20
2016,04,28,05,06,7.30
2016,04,28,05,07,7.30
2016,04,28,05,08,7.30
2016,04,28,05,09,7.30
2016,04,28,05,10,7.30
2016,04,28,05,11,7.30
2016,04,28,05,12,7.30
2016,04,28,05,13,7.30
2016,04,28,05,14,7.30
2016,04,28,05,15,7.30
2016,04,28,05,16,7.30
2016,04,28,05,17,7.30
2016,04,28,05,18,7.30
2016,04,28,05,19,7.30
2016,04,28,05,20,7.30
2016,04,28,05,21,7.20
2016,04,28,05,22,7.20
2016,04,28,05,23,7.20
2016,04,28,05,24,7.20
2016,04,28,05,25,7.20
2016,04,28,05,26,7.20
2016,04,28,05,27,7.20
2016,04,28,05,28,7.20
2016,04,28,05,29,7.20
2016,04,28,05,30,7.20
2016,04,28,05,31,7.30
2016,04,28,05,32,7.30
2016,04,28,05,33,7.30
2016,04,28,05,34,7.30
2016,04,28,05,35,7.30
2016,04,28,05,36,7.30
2016,04,28,05,37,7.30
2016,04,28,05,38,7.30
2016,04,28,05,39,7.30
2016,04,28,05,40,7.30
2016,04,28,05,41,7.30
2016,04,28,05,42,7.30
2016,04,28,05,43,7.30
2016,04,28,05,44,7.30
2016,04,28,05,45,7.30
2016,04,28,05,46,7.20
2016,04,28,05,47,7.20
2016,04,28,05,48,7.20
2016,04,28,05,49,7.20
2016,04,28,05,50,7.20
2016,04,28,05,51,7.10
2016,04,28,05,52,7.10
2016,04,28,05,53,7.10
2016,04,28,05,54,7.10
2016,04,28,05,55,7.00
2016,04,28,05,56,7.00
2016,04,28,05,57,6.90
2016,04,28,05,58,6.90
2016,04,28,05,59,6.90
2016,04,28,06,00,6.80
2016,04,28,06,01,6.80
2016,04,28,06,02,6.80
2016,04,28,06,03,6.80
2016,04,28,06,04,6.80
2016,04,28,06,05,6.80
2016,04,28,06,06,6.90
2016,04,28,06,07,6.90
2016,04,28,06,08,6.90
2016,04,28,06,09,6.90
2016,04,28,06,10,6.90
2016,04,28,06,11,6.90
2016,04,28,06,12,6.80
2016,04,28,06,13,6.80
2016,04,28,06,14,6.80
2016,04,28,06,15,6.80
2016,04,28,06,16,6.80
2016,04,28,06,17,6.80
2016,04,28,06,18,6.80
2016,04,28,06,19,6.80
2016,04,28,06,20,6.80
2016,04,28,06,21,6.80
2016,04,28,06,22,6.80
2016,04,28,06,23,6.80
2016,04,28,06,24,6.80
2016,04,28,06,25,6.80
2016,04,28,06,26,6.80
2016,04,28,06,27,6.80
2016,04,28,06,28,6.80
2016,04,28,06,29,6.80
2016,04,28,06,30,6.80
2016,04,28,06,31,6.70
2016,04,28,06,32,6.70
2016,04,28,06,33,6.70
2016,04,28,06,34,6.70
2016,04,28,06,35,6.60
2016,04,28,06,36,6.60
2016,04,28,06,37,6.60
2016,04,28,06,38,6.60
2016,04,28,06,39,6.60
2016,04,28,06,40,6.60
2016,04,28,06,41,6.60
2016,04,28,06,42,6.60
2016,04,28,06,43,6.60
2016,04,28,06,44,6.60
2016,04,28,06,45,6.60
2016,04,28,06,46,6.60
2016,04,28,06,47,6.60
2016,04,28,06,48,6.70
2016,04,28,06,49,6.70
2016,04,28,06,50,6.70
2016,04,28,06,51,6.70
2016,04,28,06,52,6.70
2016,04,28,06,53,6.80
2016,04,28,06,54,6.80
2016,04,28,06,55,6.80
2016,04,28,06,56,6.90
2016,04,28,06,57,6.90
2016,04,28,06,58,6.90
2016,04,28,06,59,6.90
2016,04,28,07,00,7.00
2016,04,28,07,01,7.10
2016,04,28,07,02,7.10
2016,04,28,07,03,7.20
2016,04,28,07,04,7.20
2016,04,28,07,05,7.30
2016,04,28,07,06,7.30
2016,04,28,07,07,7.30
2016,04,28,07,08,7.40
2016,04,28,07,09,7.40
2016,04,28,07,10,7.50
2016,04,28,07,11,7.60
2016,04,28,07,12,7.60
2016,04,28,07,13,7.70
2016,04,28,07,14,7.70
2016,04,28,07,15,7.80
2016,04,28,07,16,7.80
2016,04,28,07,17,7.90
2016,04,28,07,18,8.00
2016,04,28,07,19,8.00
2016,04,28,07,20,8.10
2016,04,28,07,21,8.20
2016,04,28,07,22,8.20
2016,04,28,07,23,8.30
2016,04,28,07,24,8.30
2016,04,28,07,25,8.40
2016,04,28,07,26,8.40
2016,04,28,07,27,8.50
2016,04,28,07,28,8.60
2016,04,28,07,29,8.60
2016,04,28,07,30,8.70
2016,04,28,07,31,8.80
2016,04,28,07,32,8.80
2016,04,28,07,33,8.90
2016,04,28,07,34,8.90
2016,04,28,07,35,9.00
2016,04,28,07,36,9.10
2016,04,28,07,37,9.10
2016,04,28,07,38,9.20
2016,04,28,07,39,9.20
2016,04,28,07,40,9.20
2016,04,28,07,41,9.30
2016,04,28,07,42,9.30
2016,04,28,07,43,9.40
2016,04,28,07,44,9.40
2016,04,28,07,45,9.40
2016,04,28,07,46,9.50
2016,04,28,07,47,9.50
2016,04,28,07,48,9.60
2016,04,28,07,49,9.60
2016,04,28,07,50,9.60
2016,04,28,07,51,9.70
2016,04,28,07,52,9.70
2016,04,28,07,53,9.70
2016,04,28,07,54,9.70
2016,04,28,07,55,9.80
2016,04,28,07,56,9.80
2016,04,28,07,57,9.80
2016,04,28,07,58,9.90
2016,04,28,07,59,9.90
2016,04,28,08,00,9.90
2016,04,28,08,01,10.00
2016,04,28,08,02,10.00
2016,04,28,08,03,10.00
2016,04,28,08,04,10.10
2016,04,28,08,05,10.10
2016,04,28,08,06,10.10
2016,04,28,08,07,10.10
2016,04,28,08,08,10.20
2016,04,28,08,09,10.20
2016,04,28,08,10,10.30
2016,04,28,08,11,10.30
2016,04,28,08,12,10.30
2016,04,28,08,13,10.40
2016,04,28,08,14,10.40
2016,04,28,08,15,10.40
2016,04,28,08,16,10.50
2016,04,28,08,17,10.50
2016,04,28,08,18,10.60
2016,04,28,08,19,10.70
2016,04,28,08,20,10.70
2016,04,28,08,21,10.80
2016,04,28,08,22,10.80
2016,04,28,08,23,10.90
2016,04,28,08,24,10.90
2016,04,28,08,25,10.90
2016,04,28,08,26,10.90
2016,04,28,08,27,10.90
2016,04,28,08,28,10.90
2016,04,28,08,29,10.90
2016,04,28,08,30,11.00
2016,04,28,08,31,11.00
2016,04,28,08,32,11.00
2016,04,28,08,33,11.00
2016,04,28,08,34,11.00
2016,04,28,08,35,11.00
2016,04,28,08,36,11.00
2016,04,28,08,37,11.00
2016,04,28,08,38,11.10
2016,04,28,08,39,11.00
2016,04,28,08,40,11.00
2016,04,28,08,41,11.00
2016,04,28,08,42,11.00
2016,04,28,08,43,10.90
2016,04,28,08,44,10.90
2016,04,28,08,45,10.90
2016,04,28,08,46,11.00
2016,04,28,08,47,11.00
2016,04,28,08,48,11.00
2016,04,28,08,49,11.10
2016,04,28,08,50,11.10
2016,04,28,08,51,11.10
2016,04,28,08,52,11.10
2016,04,28,08,53,11.10
2016,04,28,08,54,11.10
2016,04,28,08,55,11.10
2016,04,28,08,56,11.10
2016,04,28,08,57,11.20
2016,04,28,08,58,11.20
2016,04,28,08,59,11.20
2016,04,28,09,00,11.20
2016,04,28,09,01,11.20
2016,04,28,09,02,11.20
2016,04,28,09,03,11.30
2016,04,28,09,04,11.30
2016,04,28,09,05,11.30
2016,04,28,09,06,11.40
2016,04,28,09,07,11.40
2016,04,28,09,08,11.50
2016,04,28,09,09,11.50
2016,04,28,09,10,11.50
2016,04,28,09,11,11.60
2016,04,28,09,12,11.60
2016,04,28,09,13,11.60
2016,04,28,09,14,11.60
2016,04,28,09,15,11.70
2016,04,28,09,16,11.70
2016,04,28,09,17,11.70
2016,04,28,09,18,11.70
2016,04,28,09,19,11.70
2016,04,28,09,20,11.70
2016,04,28,09,21,11.70
2016,04,28,09,22,11.70
2016,04,28,09,23,11.70
2016,04,28,09,24,11.80
2016,04,28,09,25,11.80
2016,04,28,09,26,11.80
2016,04,28,09,27,11.80
2016,04,28,09,28,11.80
2016,04,28,09,29,11.80
2016,04,28,09,30,11.80
2016,04,28,09,31,11.90
2016,04,28,09,32,11.90
2016,04,28,09,33,12.00
2016,04,28,09,34,12.10
2016,04,28,09,35,12.10
2016,04,28,09,36,12.10
2016,04,28,09,37,12.10
2016,04,28,09,38,12.10
2016,04,28,09,39,12.10
2016,04,28,09,40,12.20
2016,04,28,09,41,12.20
2016,04,28,09,42,12.20
2016,04,28,09,43,12.20
2016,04,28,09,44,12.30
2016,04,28,09,45,12.30
2016,04,28,09,46,12.30
2016,04,28,09,47,12.30
2016,04,28,09,48,12.40
2016,04,28,09,49,12.40
2016,04,28,09,50,12.40
2016,04,28,09,51,12.40
2016,04,28,09,52,12.40
2016,04,28,09,53,12.40
2016,04,28,09,54,12.50
2016,04,28,09,55,12.50
2016,04,28,09,56,12.60
2016,04,28,09,57,12.60
2016,04,28,09,58,12.60
2016,04,28,09,59,12.60
2016,04,28,10,00,12.60
2016,04,28,10,01,12.50
2016,04,28,10,02,12.60
2016,04,28,10,03,12.60
2016,04,28,10,04,12.60
2016,04,28,10,05,12.60
2016,04,28,10,06,12.60
2016,04,28,10,07,12.70
2016,04,28,10,08,12.70
2016,04,28,10,09,12.60
2016,04,28,10,10,12.60
2016,04,28,10,11,12.70
2016,04,28,10,12,12.60
2016,04,28,10,13,12.60
2016,04,28,10,14,12.60
2016,04,28,10,15,12.60
2016,04,28,10,16,12.60
2016,04,28,10,17,12.60
2016,04,28,10,18,12.60
2016,04,28,10,19,12.60
2016,04,28,10,20,12.60
2016,04,28,10,21,12.60
2016,04,28,10,22,12.60
2016,04,28,10,23,12.70
2016,04,28,10,24,12.70
2016,04,28,10,25,12.70
2016,04,28,10,26,12.70
2016,04,28,10,27,12.70
2016,04,28,10,28,12.60
2016,04,28,10,29,12.60
2016,04,28,10,30,12.50
2016,04,28,10,31,12.50
2016,04,28,10,32,12.50
2016,04,28,10,33,12.50
2016,04,28,10,34,12.50
2016,04,28,10,35,12.50
2016,04,28,10,36,12.40
2016,04,28,10,37,12.40
2016,04,28,10,38,12.40
2016,04,28,10,39,12.30
2016,04,28,10,40,12.30
2016,04,28,10,41,12.30
2016,04,28,10,42,12.30
2016,04,28,10,43,12.30
2016,04,28,10,44,12.30
2016,04,28,10,45,12.40
2016,04,28,10,46,12.40
2016,04,28,10,47,12.40
2016,04,28,10,48,12.40
2016,04,28,10,49,12.30
2016,04,28,10,50,12.30
2016,04,28,10,51,12.30
2016,04,28,10,52,12.30
2016,04,28,10,53,12.30
2016,04,28,10,54,12.30
2016,04,28,10,55,12.30
2016,04,28,10,56,12.30
2016,04,28,10,57,12.40
2016,04,28,10,58,12.40
2016,04,28,10,59,12.50
2016,04,28,11,00,12.50
2016,04,28,11,01,12.60
2016,04,28,11,02,12.60
2016,04,28,11,03,12.60
2016,04,28,11,04,12.60
2016,04,28,11,05,12.60
2016,04,28,11,06,12.60
2016,04,28,11,07,12.60
2016,04,28,11,08,12.60
2016,04,28,11,09,12.70
2016,04,28,11,10,12.70
2016,04,28,11,11,12.70
2016,04,28,11,12,12.70
2016,04,28,11,13,12.70
2016,04,28,11,14,12.70
2016,04,28,11,15,12.70
2016,04,28,11,16,12.70
2016,04,28,11,17,12.80
2016,04,28,11,18,12.80
2016,04,28,11,19,12.90
2016,04,28,11,20,13.00
2016,04,28,11,21,13.00
2016,04,28,11,22,13.10
2016,04,28,11,23,13.10
2016,04,28,11,24,13.20
2016,04,28,11,25,13.20
2016,04,28,11,26,13.20
2016,04,28,11,27,13.10
2016,04,28,11,28,13.10
2016,04,28,11,29,13.10
2016,04,28,11,30,13.00
2016,04,28,11,31,13.00
2016,04,28,11,32,13.00
2016,04,28,11,33,13.10
2016,04,28,11,34,13.10
2016,04,28,11,35,13.10
2016,04,28,11,36,13.10
2016,04,28,11,37,13.20
2016,04,28,11,38,13.20
2016,04,28,11,39,13.20
2016,04,28,11,40,13.20
2016,04,28,11,41,13.30
2016,04,28,11,42,13.30
2016,04,28,11,43,13.30
2016,04,28,11,44,13.30
2016,04,28,11,45,13.40
2016,04,28,11,46,13.40
2016,04,28,11,47,13.40
2016,04,28,11,48,13.40
2016,04,28,11,49,13.40
2016,04,28,11,50,13.40
2016,04,28,11,51,13.40
2016,04,28,11,52,13.40
2016,04,28,11,53,13.30
2016,04,28,11,54,13.30
2016,04,28,11,55,13.30
2016,04,28,11,56,13.40
2016,04,28,11,57,13.40
2016,04,28,11,58,13.50
2016,04,28,11,59,13.50
2016,04,28,12,00,13.50
2016,04,28,12,01,13.50
2016,04,28,12,02,13.50
2016,04,28,12,03,13.50
2016,04,28,12,04,13.60
2016,04,28,12,05,13.60
2016,04,28,12,06,13.60
2016,04,28,12,07,13.60
2016,04,28,12,08,13.70
2016,04,28,12,09,13.70
2016,04,28,12,10,13.80
2016,04,28,12,11,13.90
2016,04,28,12,12,13.90
2016,04,28,12,13,14.00
2016,04,28,12,14,14.00
2016,04,28,12,15,14.00
2016,04,28,12,16,14.00
2016,04,28,12,17,14.00
2016,04,28,12,18,14.00
2016,04,28,12,19,14.00
2016,04,28,12,20,13.90
2016,04,28,12,21,13.90
2016,04,28,12,22,13.80
2016,04,28,12,23,13.90
2016,04,28,12,24,13.90
2016,04,28,12,25,13.90
2016,04,28,12,26,13.90
2016,04,28,12,27,13.80
2016,04,28,12,28,13.80
2016,04,28,12,29,13.80
2016,04,28,12,30,13.80
2016,04,28,12,31,13.80
2016,04,28,12,32,13.80
2016,04,28,12,33,13.80
2016,04,28,12,34,13.80
2016,04,28,12,35,13.90
2016,04,28,12,36,13.90
2016,04,28,12,37,13.80
2016,04,28,12,38,13.80
2016,04,28,12,39,13.80
2016,04,28,12,40,13.80
2016,04,28,12,41,13.80
2016,04,28,12,42,13.80
2016,04,28,12,43,13.90
2016,04,28,12,44,14.00
2016,04,28,12,45,14.00
2016,04,28,12,46,14.10
2016,04,28,12,47,14.10
2016,04,28,12,48,14.10
2016,04,28,12,49,14.10
2016,04,28,12,50,14.10
2016,04,28,12,51,14.20
2016,04,28,12,52,14.20
2016,04,28,12,53,14.20
2016,04,28,12,54,14.20
2016,04,28,12,55,14.30
2016,04,28,12,56,14.30
2016,04,28,12,57,14.30
2016,04,28,12,58,14.30
2016,04,28,12,59,14.30
2016,04,28,13,00,14.20
2016,04,28,13,01,14.20
2016,04,28,13,02,14.20
2016,04,28,13,03,14.20
2016,04,28,13,04,14.20
2016,04,28,13,05,14.20
2016,04,28,13,06,14.20
2016,04,28,13,07,14.20
2016,04,28,13,08,14.10
2016,04,28,13,09,14.10
2016,04,28,13,10,14.10
2016,04,28,13,11,14.00
2016,04,28,13,12,14.00
2016,04,28,13,13,14.00
2016,04,28,13,14,14.10
2016,04,28,13,15,14.10
2016,04,28,13,16,14.20
2016,04,28,13,17,14.20
2016,04,28,13,18,14.30
2016,04,28,13,19,14.20
2016,04,28,13,20,14.20
2016,04,28,13,21,14.20
2016,04,28,13,22,14.20
2016,04,28,13,23,14.20
2016,04,28,13,24,14.20
2016,04,28,13,25,14.20
2016,04,28,13,26,14.20
2016,04,28,13,27,14.30
2016,04,28,13,28,14.30
2016,04,28,13,29,14.30
2016,04,28,13,30,14.30
2016,04,28,13,31,14.30
2016,04,28,13,32,14.40
2016,04,28,13,33,14.40
2016,04,28,13,34,14.40
2016,04,28,13,35,14.40
2016,04,28,13,36,14.50
2016,04,28,13,37,14.50
2016,04,28,13,38,14.60
2016,04,28,13,39,14.50
2016,04,28,13,40,14.50
2016,04,28,13,41,14.50
2016,04,28,13,42,14.50
2016,04,28,13,43,14.50
2016,04,28,13,44,14.60
2016,04,28,13,45,14.50
2016,04,28,13,46,14.50
2016,04,28,13,47,14.50
2016,04,28,13,48,14.50
2016,04,28,13,49,14.60
2016,04,28,13,50,14.70
2016,04,28,13,51,14.70
2016,04,28,13,52,14.80
2016,04,28,13,53,14.80
2016,04,28,13,54,14.80
2016,04,28,13,55,14.80
2016,04,28,13,56,14.80
2016,04,28,13,57,14.70
2016,04,28,13,58,14.70
2016,04,28,13,59,14.60
2016,04,28,14,00,14.60
2016,04,28,14,01,14.60
2016,04,28,14,02,14.60
2016,04,28,14,03,14.60
2016,04,28,14,04,14.50
2016,04,28,14,05,14.50
2016,04,28,14,06,14.50
2016,04,28,14,07,14.40
2016,04,28,14,08,14.40
2016,04,28,14,09,14.40
2016,04,28,14,10,14.40
2016,04,28,14,11,14.50
2016,04,28,14,12,14.50
2016,04,28,14,13,14.50
2016,04,28,14,14,14.60
2016,04,28,14,15,14.60
2016,04,28,14,16,14.60
2016,04,28,14,17,14.70
2016,04,28,14,18,14.70
2016,04,28,14,19,14.70
2016,04,28,14,20,14.80
2016,04,28,14,21,14.80
2016,04,28,14,22,14.80
2016,04,28,14,23,14.90
2016,04,28,14,24,14.90
2016,04,28,14,25,14.90
2016,04,28,14,26,14.90
2016,04,28,14,27,14.90
2016,04,28,14,28,14.90
2016,04,28,14,29,15.00
2016,04,28,14,30,15.00
2016,04,28,14,31,15.10
2016,04,28,14,32,15.10
2016,04,28,14,33,15.10
2016,04,28,14,34,15.10
2016,04,28,14,35,15.20
2016,04,28,14,36,15.20
2016,04,28,14,37,15.20
2016,04,28,14,38,15.30
2016,04,28,14,39,15.40
2016,04,28,14,40,15.40
2016,04,28,14,41,15.50
2016,04,28,14,42,15.60
2016,04,28,14,43,15.60
2016,04,28,14,44,15.60
2016,04,28,14,45,15.60
2016,04,28,14,46,15.70
2016,04,28,14,47,15.70
2016,04,28,14,48,15.80
2016,04,28,14,49,15.90
2016,04,28,14,50,15.90
2016,04,28,14,51,16.00
2016,04,28,14,52,16.00
2016,04,28,14,53,16.00
2016,04,28,14,54,16.10
2016,04,28,14,55,16.10
2016,04,28,14,56,16.10
2016,04,28,14,57,16.20
2016,04,28,14,58,16.20
2016,04,28,14,59,16.20
2016,04,28,15,00,16.20
2016,04,28,15,01,16.20
2016,04,28,15,02,16.20
2016,04,28,15,03,16.20
2016,04,28,15,04,16.10
2016,04,28,15,05,16.00
2016,04,28,15,06,16.00
2016,04,28,15,07,15.90
2016,04,28,15,08,16.00
2016,04,28,15,09,16.00
2016,04,28,15,10,16.10
2016,04,28,15,11,16.10
2016,04,28,15,12,16.20
2016,04,28,15,13,16.20
2016,04,28,15,14,16.20
2016,04,28,15,15,16.20
2016,04,28,15,16,16.20
2016,04,28,15,17,16.20
2016,04,28,15,18,16.20
2016,04,28,15,19,16.20
2016,04,28,15,20,16.30
2016,04,28,15,21,16.30
2016,04,28,15,22,16.40
2016,04,28,15,23,16.50
2016,04,28,15,24,16.50
2016,04,28,15,25,16.60
2016,04,28,15,26,16.60
2016,04,28,15,27,16.60
2016,04,28,15,28,16.60
2016,04,28,15,29,16.60
2016,04,28,15,30,16.60
2016,04,28,15,31,16.60
2016,04,28,15,32,16.70
2016,04,28,15,33,16.70
2016,04,28,15,34,16.70
2016,04,28,15,35,16.70
2016,04,28,15,36,16.80
2016,04,28,15,37,16.80
2016,04,28,15,38,16.90
2016,04,28,15,39,16.90
2016,04,28,15,40,16.90
2016,04,28,15,41,16.80
2016,04,28,15,42,16.80
2016,04,28,15,43,16.80
2016,04,28,15,44,16.80
2016,04,28,15,45,16.80
2016,04,28,15,46,16.80
2016,04,28,15,47,16.90
2016,04,28,15,48,16.90
2016,04,28,15,49,16.90
2016,04,28,15,50,16.80
2016,04,28,15,51,16.80
2016,04,28,15,52,16.80
2016,04,28,15,53,16.80
2016,04,28,15,54,16.80
2016,04,28,15,55,16.80
2016,04,28,15,56,16.80
2016,04,28,15,57,16.80
2016,04,28,15,58,16.80
2016,04,28,15,59,16.80
2016,04,28,16,00,16.70
2016,04,28,16,01,16.70
2016,04,28,16,02,16.70
2016,04,28,16,03,16.70
2016,04,28,16,04,16.70
2016,04,28,16,05,16.80
2016,04,28,16,06,16.80
2016,04,28,16,07,16.80
2016,04,28,16,08,16.80
2016,04,28,16,09,16.80
2016,04,28,16,10,16.80
2016,04,28,16,11,16.80
2016,04,28,16,12,16.80
2016,04,28,16,13,16.90
2016,04,28,16,14,16.90
2016,04,28,16,15,17.00
2016,04,28,16,16,17.00
2016,04,28,16,17,17.00
2016,04,28,16,18,17.10
2016,04,28,16,19,17.10
2016,04,28,16,20,17.10
2016,04,28,16,21,17.10
2016,04,28,16,22,17.10
2016,04,28,16,23,17.10
2016,04,28,16,24,17.10
2016,04,28,16,25,17.10
2016,04,28,16,26,17.10
2016,04,28,16,27,17.10
2016,04,28,16,28,17.10
2016,04,28,16,29,17.10
2016,04,28,16,30,17.10
2016,04,28,16,31,17.10
2016,04,28,16,32,17.10
2016,04,28,16,33,17.10
2016,04,28,16,34,17.10
2016,04,28,16,35,17.10
2016,04,28,16,36,17.10
2016,04,28,16,37,17.10
2016,04,28,16,38,17.10
2016,04,28,16,39,17.10
2016,04,28,16,40,17.00
2016,04,28,16,41,17.00
2016,04,28,16,42,17.00
2016,04,28,16,43,17.00
2016,04,28,16,44,17.00
2016,04,28,16,45,17.00
2016,04,28,16,46,17.00
2016,04,28,16,47,17.00
2016,04,28,16,48,17.00
2016,04,28,16,49,17.00
2016,04,28,16,50,17.00
2016,04,28,16,51,17.00
2016,04,28,16,52,16.90
2016,04,28,16,53,16.90
2016,04,28,16,54,16.90
2016,04,28,16,55,16.90
2016,04,28,16,56,16.90
2016,04,28,16,57,16.80
2016,04,28,16,58,16.80
2016,04,28,16,59,16.80
2016,04,28,17,00,16.80
2016,04,28,17,01,16.80
2016,04,28,17,02,16.80
2016,04,28,17,03,16.80
2016,04,28,17,04,16.80
2016,04,28,17,05,16.80
2016,04,28,17,06,16.80
2016,04,28,17,07,16.80
2016,04,28,17,08,16.80
2016,04,28,17,09,16.90
2016,04,28,17,10,16.90
2016,04,28,17,11,16.90
2016,04,28,17,12,16.90
2016,04,28,17,13,16.80
2016,04,28,17,14,16.80
2016,04,28,17,15,16.90
2016,04,28,17,16,16.90
2016,04,28,17,17,16.90
2016,04,28,17,18,16.90
2016,04,28,17,19,16.90
2016,04,28,17,20,16.90
2016,04,28,17,21,16.80
2016,04,28,17,22,16.80
2016,04,28,17,23,16.80
2016,04,28,17,24,16.80
2016,04,28,17,25,16.80
2016,04,28,17,26,16.80
2016,04,28,17,27,16.80
2016,04,28,17,28,16.80
2016,04,28,17,29,16.80
2016,04,28,17,30,16.80
2016,04,28,17,31,16.80
2016,04,28,17,32,16.90
2016,04,28,17,33,16.90
2016,04,28,17,34,16.90
2016,04,28,17,35,16.90
2016,04,28,17,36,16.80
2016,04,28,17,37,16.80
2016,04,28,17,38,16.70
2016,04,28,17,39,16.60
2016,04,28,17,40,16.60